CW8496 Weather Reports


Display with metric or nautical units.
time (UTC)temp
F
wind
direction
speed
MPH
gust
MPH
rain 1hr
in
rain 24hr
in
rain mn
in
humidity
%
barometer
mb
20260903100018 45 270 2.0 9.0 0.00 0.06 0.03 89 1027.5
20260903093019 46 270 2.0 8.0 0.00 0.06 0.03 88 1027.2
20260903090019 46 270 4.0 9.0 0.00 0.06 0.03 87 1026.7
20260903083059 47 270 4.0 8.0 0.00 0.06 0.03 87 1026.5
20260903080017 48 270 4.0 10.0 0.00 0.06 0.03 87 1026.4
20260903073017 49 270 4.0 9.0 0.00 0.06 0.03 85 1026.4
20260903070018 51 270 2.0 10.0 0.00 0.06 0.03 83 1026.2
20260903063017 51 270 1.0 9.0 0.00 0.06 0.03 85 1025.5
20260903060019 52 270 3.0 9.0 0.00 0.06 0.03 82 1025.4
20260903053019 54 270 2.0 10.0 0.00 0.06 0.03 79 1025.4
20260902230019 53 270 8.0 13.0 0.00 0.06 0.03 83 1023.4
20260902223018 54 270 8.0 11.0 0.00 0.06 0.03 81 1022.6
20260902220018 53 270 9.0 12.0 0.00 0.06 0.03 80 1022.4
20260902213018 53 270 8.0 13.0 0.00 0.06 0.03 79 1022.1
20260902210018 53 270 7.0 13.0 0.00 0.06 0.03 77 1021.4
20260902203018 52 270 3.0 6.0 0.00 0.06 0.03 78 1021.2
20260902200038 52 270 3.0 8.0 0.00 0.06 0.03 77 1021.3
20260902193017 53 270 3.0 9.0 0.00 0.06 0.03 76 1021.5
20260902190040 53 270 3.0 8.0 0.00 0.06 0.03 76 1021.6
20260902183017 53 270 1.0 6.0 0.00 0.06 0.03 76 1021.5
20260902180017 52 248 1.0 5.0 0.02 0.07 0.03 78 1021.7
20260902173019 51 270 1.0 11.0 0.03 0.07 0.03 84 1022.0
20260902170039 53 270 2.0 12.0 0.01 0.05 0.01 79 1024.3
20260902163018 55 0.0 10.0 0.00 0.04 0.00 71 1022.7
20260902160017 55 0 2.0 10.0 0.00 0.04 0.00 71 1023.4
20260902153018 54 0.0 7.0 0.00 0.04 0.00 76 1024.0
20260902150017 53 0.0 8.0 0.00 0.04 0.00 79 1023.9
20260902143017 52 0.0 0.0 0.00 0.04 0.00 83 1024.6
20260902140057 52 0.0 0.0 0.00 0.04 0.04 85 1025.2
20260902133018 51 0.0 0.0 0.03 0.04 0.04 87 1025.0
20260902130058 53 0.0 0.0 0.03 0.04 0.04 84 1025.8
20260902123018 55 0.0 0.0 0.00 0.01 0.01 76 1026.8
20260902120018 55 0.0 0.0 0.00 0.01 0.01 74 1026.2
20260902113018 54 0.0 0.0 0.00 0.01 0.01 76 1026.0
20260902110018 55 0.0 0.0 0.00 0.01 0.01 74 1025.8
20260902103039 55 0.0 0.0 0.00 0.01 0.01 74 1025.3